GW0492 Weather Reports


time (UTC)temp
C
wind
direction
speed
KPH
gust
KPH
rain 1hr
cm
rain 24hr
cm
rain mn
cm
humidity
%
barometer
mb
20260506202016 17 0.0 0.0 0.00 0.69 0.69 94 992.7
20260506201016 17 0.0 0.0 0.00 0.69 0.69 94 992.7
20260506200016 17 0.0 0.0 0.00 0.69 0.69 94 992.7
20260506195016 17 0.0 0.0 0.00 0.69 0.69 94 992.9
20260506194016 17 0.0 0.0 0.00 0.69 0.69 95 992.8
20260506193016 16 0.0 0.0 0.00 0.69 0.69 95 992.9
20260506192016 16 0.0 0.0 0.03 0.69 0.69 95 993.1
20260506191016 16 0.0 0.0 0.03 0.69 0.69 95 993.1
20260506190016 16 0.0 0.0 0.05 0.69 0.69 95 993.3
20260506185036 16 0.0 0.0 0.08 0.69 0.69 94 993.4
20260506184016 16 0.0 0.0 0.08 0.69 0.69 94 993.6
20260506183016 16 0.0 0.0 0.10 0.69 0.69 94 993.6
20260506182016 16 0.0 0.0 0.10 0.66 0.66 94 993.7
20260506181016 16 0.0 0.0 0.13 0.66 0.66 94 993.7
20260506180016 16 0.0 0.0 0.15 0.64 0.64 94 993.8
20260506175016 16 0.0 0.0 0.20 0.61 0.61 94 993.9
20260506174016 16 0.0 0.0 0.20 0.61 0.61 93 993.8
20260506173016 16 0.0 3.2 0.18 0.58 0.58 93 993.7
20260506172016 16 0.0 4.8 0.15 0.56 0.56 93 993.8
20260506171036 16 0.0 0.0 0.15 0.53 0.53 93 993.9
20260506170016 16 0.0 4.8 0.10 0.48 0.48 93 994.0
20260506165016 16 0.0 8.0 0.05 0.41 0.41 92 994.0
20260506164016 16 0.0 4.8 0.08 0.41 0.41 92 994.0
20260506163016 16 0.0 1.6 0.15 0.41 0.41 92 994.0
20260506162016 16 90 1.6 17.7 0.23 0.41 0.41 92 993.8
20260506161016 16 68 1.6 16.1 0.23 0.38 0.38 93 993.8
20260506160016 16 0.0 6.4 0.23 0.38 0.38 92 993.9
20260506155016 16 113 1.6 6.4 0.20 0.36 0.36 92 994.3
20260506154016 16 0.0 4.8 0.20 0.33 0.33 91 994.7
20260506153016 16 113 3.2 12.9 0.18 0.25 0.25 91 995.0
20260506152035 16 113 4.8 22.5 0.13 0.18 0.18 90 995.0
20260506151016 17 0.0 1.6 0.13 0.15 0.15 89 995.0
20260506150016 17 113 3.2 17.7 0.13 0.15 0.15 90 994.6
20260506145016 17 90 1.6 12.9 0.13 0.15 0.15 90 994.7
20260506144015 17 0.0 0.0 0.13 0.15 0.13 89 994.6
20260506143016 17 0.0 0.0 0.08 0.10 0.08 87 994.7
20260506142016 17 0.0 1.6 0.05 0.08 0.05 87 995.0
20260506141016 17 0.0 0.0 0.03 0.05 0.03 86 995.0
20260506140015 17 0.0 0.0 0.03 0.05 0.03 85 994.9
20260506135015 17 0.0 0.0 0.03 0.05 0.03 85 994.7
20260506134015 17 0.0 0.0 0.00 0.03 0.00 85 994.9
20260506133015 17 90 1.6 8.0 0.00 0.03 0.00 83 995.1
20260506132015 18 0.0 0.0 0.00 0.03 0.00 82 995.1
20260506131015 18 0.0 0.0 0.00 0.03 0.00 82 995.2
20260506130035 18 0.0 1.6 0.00 0.03 0.00 80 995.2
20260506125016 18 90 3.2 12.9 0.00 0.03 0.00 78 995.4
20260506124035 18 113 6.4 22.5 0.00 0.03 0.00 75 995.1
20260506123015 18 90 1.6 16.1 0.00 0.03 0.00 74 995.1
20260506122035 19 90 3.2 14.5 0.00 0.03 0.00 74 994.9
20260506121015 19 68 4.8 19.3 0.00 0.03 0.00 73 994.7
20260506120015 19 90 4.8 17.7 0.00 0.03 0.00 73 995.0
20260506115035 19 90 6.4 16.1 0.00 0.03 0.00 72 995.0
20260506114015 19 90 8.0 22.5 0.00 0.03 0.00 72 994.8
20260506113015 18 90 1.6 12.9 0.00 0.03 0.00 73 994.9
20260506112015 18 113 4.8 22.5 0.00 0.03 0.00 73 994.9
20260506111017 18 135 4.8 17.7 0.00 0.03 0.00 73 994.9
20260506110017 18 45 4.8 20.9 0.00 0.03 0.00 73 994.7
20260506105017 18 90 4.8 16.1 0.00 0.03 0.00 73 994.4
20260506104017 18 90 4.8 17.7 0.00 0.03 0.00 73 994.4
20260506103017 18 113 3.2 12.9 0.00 0.03 0.00 73 994.3
20260506102017 18 90 4.8 11.3 0.00 0.03 0.00 73 994.2
20260506101017 18 90 4.8 17.7 0.00 0.03 0.00 73 994.3
20260506100017 18 90 3.2 12.9 0.00 0.03 0.00 73 994.4
20260506095017 18 0.0 0.0 0.00 0.03 0.00 72 994.6
20260506094037 18 113 4.8 17.7 0.00 0.03 0.00 72 994.5
20260506093017 18 90 3.2 14.5 0.00 0.03 0.00 71 994.3
20260506092017 18 90 3.2 9.7 0.00 0.03 0.00 70 994.5
20260506091017 19 90 4.8 14.5 0.00 0.03 0.00 70 994.4
20260506090017 19 90 4.8 12.9 0.00 0.03 0.00 69 994.5
20260506085037 19 68 3.2 9.7 0.00 0.03 0.00 68 994.6
20260506084017 19 90 4.8 14.5 0.00 0.03 0.00 67 994.7
20260506083017 19 113 6.4 17.7 0.00 0.03 0.00 67 994.6
20260506082017 19 0.0 0.0 0.00 0.05 0.00 66 994.7
20260506081017 19 90 4.8 12.9 0.00 0.05 0.00 65 994.7
20260506073017 20 113 6.4 17.7 0.00 0.05 0.00 62 994.8
20260506072017 20 68 4.8 14.5 0.00 0.05 0.00 62 994.8
20260506071017 20 90 4.8 16.1 0.00 0.05 0.00 61 994.9
20260506062016 20 90 6.4 17.7 0.00 0.05 0.00 60 995.1
20260506061017 20 90 3.2 14.5 0.00 0.05 0.00 59 995.2
20260506051016 20 113 4.8 17.7 0.00 0.05 0.00 57 995.6
20260506045017 20 90 4.8 14.5 0.00 0.05 0.00 57 995.7
20260506044017 20 90 1.6 11.3 0.00 0.05 0.00 56 995.8
20260506043037 20 90 4.8 14.5 0.00 0.05 0.00 56 995.7
20260506042016 20 45 1.6 9.7 0.00 0.05 0.00 55 995.9
20260506041016 21 90 4.8 14.5 0.00 0.05 0.00 55 995.7
20260506040056 21 90 3.2 14.5 0.00 0.05 0.05 54 995.7
20260506035016 21 90 4.8 14.5 0.00 0.05 0.05 53 995.7
20260506034016 21 90 1.6 9.7 0.00 0.05 0.05 53 995.7
20260506033036 21 90 3.2 19.3 0.00 0.05 0.05 52 995.7
20260506032036 21 0.0 4.8 0.00 0.05 0.05 51 995.6
20260506031016 21 90 6.4 16.1 0.00 0.05 0.05 50 995.6
20260506030015 22 90 3.2 14.5 0.00 0.05 0.05 50 995.5
20260506025016 22 90 8.0 17.7 0.00 0.05 0.05 49 995.5
20260506024015 22 113 8.0 20.9 0.00 0.05 0.05 48 995.6
20260506023016 22 90 6.4 17.7 0.00 0.05 0.05 47 995.6
20260506022016 22 90 6.4 14.5 0.00 0.05 0.05 47 995.7
20260506021016 22 68 3.2 11.3 0.00 0.05 0.05 46 995.6
20260506020035 23 90 1.6 11.3 0.00 0.05 0.05 45 995.6
20260506015015 23 90 4.8 17.7 0.00 0.05 0.05 44 995.5
20260506014015 23 90 6.4 16.1 0.00 0.05 0.05 43 995.4
20260506013016 23 90 4.8 14.5 0.00 0.05 0.05 42 995.3
20260506012015 23 90 6.4 19.3 0.00 0.05 0.05 42 995.2
20260506011035 23 90 8.0 19.3 0.00 0.05 0.05 41 995.0
20260506010036 23 90 6.4 17.7 0.00 0.05 0.05 41 994.8
20260506005015 24 90 3.2 12.9 0.00 0.05 0.05 41 994.6
20260506004015 24 113 4.8 17.7 0.00 0.05 0.05 41 994.7
20260506003015 24 90 4.8 17.7 0.00 0.05 0.05 41 994.4
20260506002015 24 68 4.8 14.5 0.00 0.05 0.05 41 994.4
20260506001035 25 68 3.2 12.9 0.00 0.05 0.05 41 994.2
20260506000017 25 90 6.4 16.1 0.00 0.05 0.05 40 994.2
20260505235017 25 90 6.4 14.5 0.00 0.05 0.05 39 994.2
20260505234017 25 90 6.4 17.7 0.00 0.05 0.05 39 994.0
20260505233017 25 90 3.2 12.9 0.00 0.05 0.05 39 994.0
20260505232017 25 90 6.4 24.1 0.00 0.05 0.05 38 993.9
20260505231017 26 113 8.0 17.7 0.00 0.05 0.05 37 993.8
20260505230017 26 90 8.0 27.4 0.00 0.05 0.05 37 993.8
20260505225017 26 113 4.8 16.1 0.00 0.05 0.05 37 993.7
20260505224017 27 113 6.4 27.4 0.00 0.05 0.05 36 993.8
20260505223017 27 113 6.4 29.0 0.00 0.05 0.05 35 993.7
20260505222017 27 68 8.0 22.5 0.00 0.05 0.05 34 993.6
20260505221017 27 90 3.2 16.1 0.00 0.05 0.05 35 993.5
20260505220017 27 90 9.7 20.9 0.00 0.05 0.05 33 993.4
20260505215017 27 90 6.4 20.9 0.00 0.05 0.05 34 993.6
20260505214017 27 113 9.7 29.0 0.00 0.05 0.05 34 993.6
20260505213017 27 90 9.7 22.5 0.00 0.05 0.05 36 993.6
20260505212037 27 90 4.8 12.9 0.00 0.05 0.05 36 993.5
20260505211017 28 68 3.2 22.5 0.00 0.05 0.05 34 993.6
20260505210037 28 90 4.8 17.7 0.00 0.05 0.05 34 993.5
20260505205017 28 113 11.3 38.6 0.00 0.05 0.05 32 993.6
20260505204037 28 113 6.4 19.3 0.00 0.05 0.05 35 993.6
20260505203017 27 90 12.9 32.2 0.00 0.05 0.05 34 993.4